Time,TemperatureF,DewpointF,PressureIn,WindDirection,WindDirectionDegrees,WindSpeedMPH,WindSpeedGustMPH,Humidity,HourlyPrecipIn,Conditions,Clouds,dailyrainin,SoftwareType,DateUTC
2013-08-20 00:07:00,59.0,56.0,29.85,North,360,0.0,1.0,88,0.00,,,0.00,weatherlink.com 1.10,2013-08-20 07:07:00,
2013-08-20 00:22:00,59.0,56.0,29.86,North,360,0.0,2.0,88,0.00,,,0.00,weatherlink.com 1.10,2013-08-20 07:22:00,
2013-08-20 00:37:00,58.9,56.0,29.86,WNW,302,0.0,2.0,89,0.00,,,0.00,weatherlink.com 1.10,2013-08-20 07:37:00,
2013-08-20 00:52:00,58.8,56.0,29.87,WNW,302,0.0,1.0,89,0.00,,,0.00,weatherlink.com 1.10,2013-08-20 07:52:00,
2013-08-20 01:07:00,58.8,56.0,29.87,WNW,302,0.0,1.0,89,0.00,,,0.00,weatherlink.com 1.10,2013-08-20 08:07:00,
2013-08-20 01:22:00,58.8,56.0,29.86,NNE,27,0.0,1.0,89,0.00,,,0.00,weatherlink.com 1.10,2013-08-20 08:22:00,
2013-08-20 01:37:00,58.9,56.0,29.85,SE,141,0.0,2.0,90,0.00,,,0.00,weatherlink.com 1.10,2013-08-20 08:37:00,
2013-08-20 01:52:00,58.9,56.0,29.86,SE,140,0.0,1.0,90,0.00,,,0.00,weatherlink.com 1.10,2013-08-20 08:52:00,
2013-08-20 02:07:00,59.0,56.0,29.85,ESE,123,0.0,0.0,90,0.00,,,0.00,weatherlink.com 1.10,2013-08-20 09:07:00,
2013-08-20 02:22:00,58.9,56.0,29.85,ESE,123,0.0,1.0,90,0.00,,,0.00,weatherlink.com 1.10,2013-08-20 09:22:00,
2013-08-20 02:37:00,58.9,56.0,29.84,ESE,123,0.0,0.0,90,0.00,,,0.00,weatherlink.com 1.10,2013-08-20 09:37:00,
2013-08-20 02:52:00,58.9,56.0,29.84,ESE,123,0.0,0.0,90,0.00,,,0.00,weatherlink.com 1.10,2013-08-20 09:52:00,
2013-08-20 03:07:00,58.8,56.0,29.84,ESE,123,0.0,1.0,90,0.00,,,0.00,weatherlink.com 1.10,2013-08-20 10:07:00,
2013-08-20 03:22:00,58.7,56.0,29.84,ESE,123,0.0,0.0,90,0.00,,,0.00,weatherlink.com 1.10,2013-08-20 10:22:00,
2013-08-20 03:37:00,58.5,56.0,29.83,ESE,123,0.0,0.0,91,0.00,,,0.00,weatherlink.com 1.10,2013-08-20 10:37:00,
2013-08-20 03:52:00,58.2,56.0,29.83,ESE,123,0.0,0.0,91,0.00,,,0.00,weatherlink.com 1.10,2013-08-20 10:52:00,
2013-08-20 04:07:00,58.0,55.0,29.83,ESE,123,0.0,0.0,91,0.00,,,0.00,weatherlink.com 1.10,2013-08-20 11:07:00,
2013-08-20 04:22:00,57.6,55.0,29.82,ESE,123,0.0,0.0,91,0.00,,,0.00,weatherlink.com 1.10,2013-08-20 11:22:00,
2013-08-20 04:37:00,57.3,55.0,29.82,ESE,123,0.0,0.0,92,0.00,,,0.00,weatherlink.com 1.10,2013-08-20 11:37:00,
2013-08-20 04:52:00,57.2,55.0,29.82,ESE,123,0.0,0.0,92,0.00,,,0.00,weatherlink.com 1.10,2013-08-20 11:52:00,
2013-08-20 05:07:00,57.1,55.0,29.82,ESE,123,0.0,1.0,93,0.00,,,0.00,weatherlink.com 1.10,2013-08-20 12:07:00,
2013-08-20 05:22:00,57.1,55.0,29.81,ESE,123,0.0,0.0,93,0.00,,,0.00,weatherlink.com 1.10,2013-08-20 12:22:00,
2013-08-20 05:37:00,57.1,55.0,29.82,ESE,123,0.0,0.0,93,0.00,,,0.00,weatherlink.com 1.10,2013-08-20 12:37:00,
2013-08-20 05:52:00,57.3,55.0,29.82,ESE,123,0.0,0.0,93,0.00,,,0.00,weatherlink.com 1.10,2013-08-20 12:52:00,
2013-08-20 06:07:00,57.4,55.0,29.82,ESE,123,0.0,1.0,93,0.00,,,0.00,weatherlink.com 1.10,2013-08-20 13:07:00,
2013-08-20 06:22:00,57.6,55.0,29.83,ESE,123,0.0,0.0,92,0.00,,,0.00,weatherlink.com 1.10,2013-08-20 13:22:00,
2013-08-20 06:37:00,57.7,56.0,29.84,ESE,123,0.0,0.0,93,0.00,,,0.00,weatherlink.com 1.10,2013-08-20 13:37:00,
2013-08-20 06:52:00,57.8,56.0,29.85,ESE,123,0.0,0.0,93,0.00,,,0.00,weatherlink.com 1.10,2013-08-20 13:52:00,
2013-08-20 07:07:00,58.3,56.0,29.85,SE,130,1.0,2.0,93,0.00,,,0.00,weatherlink.com 1.10,2013-08-20 14:07:00,
2013-08-20 07:22:00,58.8,57.0,29.85,SE,131,0.0,2.0,92,0.00,,,0.00,weatherlink.com 1.10,2013-08-20 14:22:00,
2013-08-20 07:37:00,59.1,57.0,29.86,SE,131,0.0,1.0,92,0.00,,,0.00,weatherlink.com 1.10,2013-08-20 14:37:00,
2013-08-20 07:52:00,59.5,57.0,29.86,SE,131,0.0,1.0,91,0.00,,,0.00,weatherlink.com 1.10,2013-08-20 14:52:00,
2013-08-20 08:07:00,59.8,57.0,29.86,SE,131,0.0,1.0,91,0.00,,,0.00,weatherlink.com 1.10,2013-08-20 15:07:00,
2013-08-20 08:22:00,60.2,57.0,29.86,SW,215,1.0,3.0,90,0.00,,,0.00,weatherlink.com 1.10,2013-08-20 15:22:00,
2013-08-20 08:37:00,60.2,57.0,29.86,SW,222,1.0,3.0,90,0.00,,,0.00,weatherlink.com 1.10,2013-08-20 15:37:00,
2013-08-20 08:52:00,60.6,57.0,29.87,SW,220,0.0,5.0,89,0.00,,,0.00,weatherlink.com 1.10,2013-08-20 15:52:00,
2013-08-20 09:07:00,60.9,58.0,29.87,SW,218,1.0,4.0,89,0.00,,,0.00,weatherlink.com 1.10,2013-08-20 16:07:00,
2013-08-20 09:22:00,61.1,58.0,29.87,SSW,213,0.0,4.0,89,0.00,,,0.00,weatherlink.com 1.10,2013-08-20 16:22:00,
2013-08-20 09:52:00,62.4,59.0,29.87,SW,218,0.0,2.0,88,0.00,,,0.00,weatherlink.com 1.10,2013-08-20 16:52:00,
2013-08-20 10:08:00,63.3,59.0,29.86,SSW,199,0.0,3.0,85,0.00,,,0.00,weatherlink.com 1.10,2013-08-20 17:08:00,
2013-08-20 10:23:00,64.3,59.0,29.87,SW,220,0.0,3.0,83,0.00,,,0.00,weatherlink.com 1.10,2013-08-20 17:23:00,
2013-08-20 10:38:00,65.2,60.0,29.87,ESE,123,0.0,3.0,82,0.00,,,0.00,weatherlink.com 1.10,2013-08-20 17:38:00,
2013-08-20 10:53:00,66.3,60.0,29.87,SSE,148,0.0,5.0,80,0.00,,,0.00,weatherlink.com 1.10,2013-08-20 17:53:00,
2013-08-20 11:08:00,66.7,60.0,29.87,South,185,1.0,7.0,78,0.00,,,0.00,weatherlink.com 1.10,2013-08-20 18:08:00,
2013-08-20 11:23:00,67.8,60.0,29.87,SW,231,0.0,7.0,76,0.00,,,0.00,weatherlink.com 1.10,2013-08-20 18:23:00,
2013-08-20 11:38:00,68.9,61.0,29.87,ESE,103,1.0,5.0,75,0.00,,,0.00,weatherlink.com 1.10,2013-08-20 18:38:00,
2013-08-20 11:53:00,69.9,61.0,29.86,ESE,117,2.0,4.0,73,0.00,,,0.00,weatherlink.com 1.10,2013-08-20 18:53:00,
2013-08-20 12:08:00,70.4,61.0,29.86,South,181,1.0,5.0,72,0.00,,,0.00,weatherlink.com 1.10,2013-08-20 19:08:00,
2013-08-20 12:23:00,72.1,61.0,29.86,South,188,1.0,5.0,69,0.00,,,0.00,weatherlink.com 1.10,2013-08-20 19:23:00,
2013-08-20 12:38:00,73.3,62.0,29.86,East,86,0.0,5.0,68,0.00,,,0.00,weatherlink.com 1.10,2013-08-20 19:38:00,
2013-08-20 12:53:00,73.7,62.0,29.85,West,261,0.0,4.0,67,0.00,,,0.00,weatherlink.com 1.10,2013-08-20 19:53:00,
2013-08-20 13:08:00,74.2,61.0,29.85,South,179,0.0,5.0,63,0.00,,,0.00,weatherlink.com 1.10,2013-08-20 20:08:00,
2013-08-20 13:23:00,75.7,61.0,29.84,SW,219,0.0,5.0,61,0.00,,,0.00,weatherlink.com 1.10,2013-08-20 20:23:00,
2013-08-20 13:38:00,77.3,61.0,29.84,SW,229,1.0,4.0,58,0.00,,,0.00,weatherlink.com 1.10,2013-08-20 20:38:00,
2013-08-20 13:53:00,78.6,61.0,29.83,SW,215,4.0,7.0,55,0.00,,,0.00,weatherlink.com 1.10,2013-08-20 20:53:00,
2013-08-20 14:08:00,79.5,61.0,29.83,SW,233,2.0,7.0,54,0.00,,,0.00,weatherlink.com 1.10,2013-08-20 21:08:00,
2013-08-20 14:23:00,80.3,59.0,29.82,SSW,206,2.0,6.0,48,0.00,,,0.00,weatherlink.com 1.10,2013-08-20 21:23:00,
2013-08-20 14:38:00,80.7,60.0,29.82,SE,137,1.0,9.0,50,0.00,,,0.00,weatherlink.com 1.10,2013-08-20 21:38:00,
2013-08-20 14:53:00,81.8,60.0,29.82,SSW,193,0.0,7.0,48,0.00,,,0.00,weatherlink.com 1.10,2013-08-20 21:53:00,
2013-08-20 15:08:00,82.0,60.0,29.81,South,189,0.0,6.0,47,0.00,,,0.00,weatherlink.com 1.10,2013-08-20 22:08:00,
2013-08-20 15:23:00,83.0,60.0,29.81,SE,141,0.0,6.0,45,0.00,,,0.00,weatherlink.com 1.10,2013-08-20 22:23:00,
2013-08-20 15:39:00,83.9,60.0,29.80,SE,146,1.0,6.0,45,0.00,,,0.00,weatherlink.com 1.10,2013-08-20 22:39:00,
2013-08-20 15:54:00,83.8,59.0,29.79,SW,223,0.0,6.0,43,0.00,,,0.00,weatherlink.com 1.10,2013-08-20 22:54:00,
2013-08-20 16:09:00,-999.0,-99.9,29.79,North,-999,-999.0,-999.0,-999,0.00,,,0.00,weatherlink.com 1.10,2013-08-20 23:09:00,
2013-08-20 16:24:00,-999.0,-99.9,29.78,North,-999,-999.0,-999.0,-999,0.00,,,0.00,weatherlink.com 1.10,2013-08-20 23:24:00,
2013-08-20 16:39:00,-999.0,-99.9,29.77,North,-999,-999.0,-999.0,-999,0.00,,,0.00,weatherlink.com 1.10,2013-08-20 23:39:00,
2013-08-20 16:54:00,-999.0,-99.9,29.77,North,-999,-999.0,-999.0,-999,0.00,,,0.00,weatherlink.com 1.10,2013-08-20 23:54:00,
2013-08-20 17:09:00,84.3,62.0,29.78,SSE,167,2.0,7.0,47,0.00,,,0.00,weatherlink.com 1.10,2013-08-21 00:09:00,
2013-08-20 17:24:00,82.3,61.0,29.78,SE,128,2.0,7.0,49,0.00,,,0.00,weatherlink.com 1.10,2013-08-21 00:24:00,
2013-08-20 17:39:00,80.8,60.0,29.79,SSE,155,2.0,6.0,50,0.00,,,0.00,weatherlink.com 1.10,2013-08-21 00:39:00,
2013-08-20 17:54:00,78.2,59.0,29.79,SW,221,3.0,7.0,52,0.00,,,0.00,weatherlink.com 1.10,2013-08-21 00:54:00,
2013-08-20 18:09:00,76.2,59.0,29.80,ESE,118,1.0,5.0,55,0.00,,,0.00,weatherlink.com 1.10,2013-08-21 01:09:00,
2013-08-20 18:24:00,74.7,59.0,29.81,SE,127,2.0,4.0,58,0.00,,,0.00,weatherlink.com 1.10,2013-08-21 01:24:00,
2013-08-20 18:39:00,72.0,59.0,29.81,SE,133,0.0,4.0,63,0.00,,,0.00,weatherlink.com 1.10,2013-08-21 01:39:00,
2013-08-20 18:54:00,70.1,59.0,29.81,SE,134,2.0,5.0,67,0.00,,,0.00,weatherlink.com 1.10,2013-08-21 01:54:00,
2013-08-20 19:09:00,68.3,59.0,29.82,SE,143,1.0,4.0,71,0.00,,,0.00,weatherlink.com 1.10,2013-08-21 02:09:00,
2013-08-20 19:24:00,67.7,59.0,29.82,South,184,1.0,3.0,73,0.00,,,0.00,weatherlink.com 1.10,2013-08-21 02:24:00,
2013-08-20 19:39:00,66.7,58.0,29.83,SE,134,0.0,4.0,74,0.00,,,0.00,weatherlink.com 1.10,2013-08-21 02:39:00,
2013-08-20 19:54:00,65.1,58.0,29.84,SSW,198,1.0,3.0,77,0.00,,,0.00,weatherlink.com 1.10,2013-08-21 02:54:00,
2013-08-20 20:09:00,64.2,58.0,29.84,South,172,0.0,2.0,79,0.00,,,0.00,weatherlink.com 1.10,2013-08-21 03:09:00,
2013-08-20 20:24:00,63.5,58.0,29.85,South,178,0.0,1.0,81,0.00,,,0.00,weatherlink.com 1.10,2013-08-21 03:24:00,
2013-08-20 20:39:00,62.7,58.0,29.85,West,267,0.0,1.0,83,0.00,,,0.00,weatherlink.com 1.10,2013-08-21 03:39:00,
2013-08-20 20:54:00,62.0,57.0,29.86,NNW,342,0.0,2.0,84,0.00,,,0.00,weatherlink.com 1.10,2013-08-21 03:54:00,
2013-08-20 21:09:00,61.6,57.0,29.86,WNW,294,0.0,1.0,85,0.00,,,0.00,weatherlink.com 1.10,2013-08-21 04:09:00,
2013-08-20 21:24:00,61.4,57.0,29.86,WNW,294,0.0,1.0,85,0.00,,,0.00,weatherlink.com 1.10,2013-08-21 04:24:00,
2013-08-20 21:39:00,61.1,57.0,29.87,WNW,294,0.0,2.0,87,0.00,,,0.00,weatherlink.com 1.10,2013-08-21 04:39:00,
2013-08-20 21:54:00,61.1,57.0,29.87,WNW,292,0.0,1.0,87,0.00,,,0.00,weatherlink.com 1.10,2013-08-21 04:54:00,
2013-08-20 22:09:00,61.1,57.0,29.87,East,95,0.0,1.0,87,0.00,,,0.00,weatherlink.com 1.10,2013-08-21 05:09:00,
2013-08-20 22:24:00,61.0,57.0,29.87,East,95,0.0,2.0,87,0.00,,,0.00,weatherlink.com 1.10,2013-08-21 05:24:00,
2013-08-20 22:39:00,60.9,57.0,29.87,East,95,0.0,0.0,87,0.00,,,0.00,weatherlink.com 1.10,2013-08-21 05:39:00,
2013-08-20 22:54:00,60.9,57.0,29.86,East,95,0.0,0.0,87,0.00,,,0.00,weatherlink.com 1.10,2013-08-21 05:54:00,
2013-08-20 23:09:00,61.1,57.0,29.86,East,95,0.0,1.0,87,0.00,,,0.00,weatherlink.com 1.10,2013-08-21 06:09:00,
2013-08-20 23:24:00,61.1,57.0,29.86,ENE,74,0.0,2.0,87,0.00,,,0.00,weatherlink.com 1.10,2013-08-21 06:24:00,
2013-08-20 23:39:00,61.1,57.0,29.86,ENE,74,0.0,1.0,87,0.00,,,0.00,weatherlink.com 1.10,2013-08-21 06:39:00,
2013-08-20 23:54:00,61.0,57.0,29.86,ENE,74,0.0,1.0,87,0.00,,,0.00,weatherlink.com 1.10,2013-08-21 06:54:00,